Regional Weather Roundup
Issued by NWS

Home | Current Version | Previous Version | Text Only | Print | Product List | Glossary On
Versions: 1 2 3 4 5 6 7 8 9 10 11 12 13 14 15 16 17 18 19 20 21 22 23 24 25 26 27
000
ASUS45 KBOI 262110
RWRID

IDAHO REGIONAL WEATHER ROUNDUP
NATIONAL WEATHER SERVICE BOISE ID
300 PM MDT WED APR 26 2017

NOTE: "FAIR" INDICATES FEW OR NO CLOUDS BELOW 12000 FEET
WITH NO SIGNIFICANT WEATHER AND/OR OBSTRUCTIONS TO VISIBILITY

IDZ012-014-262200-
SOUTHWEST IDAHO


CITY           SKY/WX    TMP DP  RH WIND       PRES   REMARKS
BOISE          LGT RAIN  47  43  86 W10       29.80R
CALDWELL       LGT RAIN  50  44  80 CALM      29.79F
MOUNTAIN HOME  LGT RAIN  49  49  99 N8        29.79S
$$

IDZ016-017-262200-
SOUTHCENTRAL IDAHO


CITY           SKY/WX    TMP DP  RH WIND       PRES   REMARKS
BURLEY         LGT RAIN  46  41  82 NW9       29.78R
JEROME         LGT RAIN  45  43  93 W13       29.80S
TWIN FALLS     LGT RAIN  44  41  89 W15       29.80S
$$

IDZ019>023-262200-
SOUTHEAST IDAHO


CITY           SKY/WX    TMP DP  RH WIND       PRES   REMARKS
IDAHO FALLS    CLOUDY    51  38  60 S17       29.73F
POCATELLO      LGT RAIN  46  42  86 S15       29.78R
REXBURG        CLOUDY    49  35  58 SW17      29.72F
$$

IDZ006-010-011-018-031-032-262200-
CENTRAL IDAHO MOUNTAINS


CITY           SKY/WX    TMP DP  RH WIND       PRES   REMARKS
MCCALL         LGT RAIN  39  34  82 SE5       29.73F
HAILEY         PTSUNNY   45  37  76 CALM      29.76F
STANLEY          N/A     40  24  53 VRB3      29.74F
SALMON         CLOUDY    46  37  71 N7        29.70S
CHALLIS        CLOUDY    48  32  53 NW10      29.69F
$$

IDZ002-004-006-007-026-262200-
NORTHERN IDAHO


CITY           SKY/WX    TMP DP  RH WIND       PRES   REMARKS
LEWISTON       LGT RAIN  50  42  74 W8        29.75R
LOWELL           N/A     53  39  59 S12G21    29.74R
COEUR D`ALENE  LGT RAIN  52  38  58 SW14      29.68S
MULLAN PASS    CLOUDY    32  31  96 SW7       29.66F WCI  26
$$




USA.gov is the U.S. government's official web portal to all federal, state and local government web resources and services.